RYR1958 GMFF-LEMG

Flight info

Callsign RYR1958
Flight time N/A
Altitude 28000
Route BOKPA UG850 BERUM L58 LUVIV L195 INKAL
Aircraft B738/M-SDE2E3FGHIRWXY/LB1

Departure

Time 2026-05-09 04:53
Airport Fes Saïss International Airport (GMFF)

Arrival

Time N/A
Airport Málaga-Costa del Sol Airport (LEMG)
Time Latitude Longitude Altitude Speed Heading
2026-05-09 04:45 33.92967 -4.98390 1880 ft 0 kts
2026-05-09 04:49 33.92960 -4.98390 1879 ft 2 kts
2026-05-09 04:49 33.92944 -4.98389 1878 ft 2 kts 350°
2026-05-09 04:49 33.92929 -4.98382 1880 ft 2 kts 319°
2026-05-09 04:49 33.92919 -4.98368 1885 ft 2 kts 301°
2026-05-09 04:50 33.92912 -4.98350 1883 ft 2 kts 283°
2026-05-09 04:50 33.92911 -4.98344 1885 ft 0 kts 273°
2026-05-09 04:51 33.92912 -4.98382 1883 ft 13 kts 273°
2026-05-09 04:51 33.92911 -4.98502 1888 ft 14 kts 259°
2026-05-09 04:51 33.92848 -4.98584 1881 ft 14 kts 201°
2026-05-09 04:52 33.92758 -4.98583 1885 ft 13 kts 149°
2026-05-09 04:52 33.92733 -4.98484 1885 ft 16 kts 91°
2026-05-09 04:52 33.92733 -4.98001 1890 ft 99 kts 90°
2026-05-09 04:52 33.92728 -4.96866 1922 ft 168 kts 90°
2026-05-09 04:53 33.92691 -4.95365 2561 ft 186 kts 93°
2026-05-09 04:53 33.92665 -4.93793 3606 ft 190 kts 90°
2026-05-09 04:53 33.92681 -4.92182 4603 ft 194 kts 90°
2026-05-09 04:53 33.92854 -4.90561 5462 ft 199 kts 64°
2026-05-09 04:54 33.93700 -4.89275 6340 ft 196 kts 36°
2026-05-09 04:54 33.94847 -4.88357 6933 ft 208 kts 25°
2026-05-09 04:54 33.96204 -4.87479 7148 ft 234 kts 24°
2026-05-09 04:54 33.97718 -4.86522 7320 ft 258 kts 24°
2026-05-09 04:55 33.99373 -4.85466 7509 ft 282 kts 25°
2026-05-09 04:55 34.01165 -4.84307 7954 ft 299 kts 25°
2026-05-09 04:55 34.03017 -4.83092 8709 ft 306 kts 26°
2026-05-09 04:55 34.04889 -4.81854 9591 ft 309 kts 26°
2026-05-09 04:56 34.06795 -4.80586 10295 ft 318 kts 27°
2026-05-09 04:56 34.08801 -4.79250 10529 ft 343 kts 27°
2026-05-09 04:56 34.10966 -4.77806 10736 ft 366 kts 27°
2026-05-09 04:56 34.13233 -4.76287 11256 ft 377 kts 27°
2026-05-09 04:57 34.15546 -4.74735 11918 ft 384 kts 27°
2026-05-09 04:57 34.17893 -4.73157 12669 ft 388 kts 27°
2026-05-09 04:57 34.20263 -4.71563 13400 ft 393 kts 27°
2026-05-09 04:57 34.22668 -4.69945 14081 ft 398 kts 27°
2026-05-09 04:58 34.25103 -4.68307 14728 ft 403 kts 27°
2026-05-09 04:58 34.27563 -4.66651 15385 ft 407 kts 27°
2026-05-09 04:58 34.30058 -4.64970 16012 ft 413 kts 27°
2026-05-09 04:58 34.32611 -4.63249 16644 ft 418 kts 27°
2026-05-09 04:59 34.35166 -4.61526 17290 ft 422 kts 27°
2026-05-09 04:59 34.37747 -4.59784 17925 ft 427 kts 27°
2026-05-09 04:59 34.40307 -4.57920 18512 ft 433 kts 34°
2026-05-09 04:59 34.42739 -4.55749 19080 ft 435 kts 37°
2026-05-09 05:00 34.45123 -4.53495 19733 ft 436 kts 38°
2026-05-09 05:00 34.47514 -4.51199 20225 ft 442 kts 38°
2026-05-09 05:00 34.49939 -4.48874 20719 ft 447 kts 38°
2026-05-09 05:00 34.52393 -4.46538 21268 ft 450 kts 38°
2026-05-09 05:01 34.54873 -4.44195 21803 ft 454 kts 38°
2026-05-09 05:01 34.57374 -4.41844 22334 ft 457 kts 37°
2026-05-09 05:01 34.59905 -4.39472 22830 ft 461 kts 37°
2026-05-09 05:01 34.62453 -4.37084 23291 ft 465 kts 37°
2026-05-09 05:02 34.65029 -4.34672 23720 ft 469 kts 37°
2026-05-09 05:02 34.67613 -4.32249 24287 ft 466 kts 38°
2026-05-09 05:02 34.70173 -4.29846 24827 ft 467 kts 37°
2026-05-09 05:02 34.71886 -4.28236 24999 ft 472 kts 37°
2026-05-09 05:03 34.75395 -4.24937 25371 ft 480 kts 37°
2026-05-09 05:03 34.76292 -4.24093 25505 ft 481 kts 37°